IZ0CGP Civita Castellana IT current weather conditions

sailwx.info

Wind from 019

Air temperature 7.8° C
Dewpoint 4.2° C

Last reported at 2019-Dec-05 21:59 UTC.
Time now 2019-Dec-05 22:18 UTC

Location: N 42°17' E 012°25'.
View on Google Maps.

See reports from other nearby stations

  
Tides and Currents Weather Stations Pressure Air Temp Water Temp Dewpoint Dewpoint Depression Visibility Wind Speed Wind Dir Waves Ship Positions
date/time (UTC)wind fromknots sea level pressurealtimeterstation pressurevisibilityair tempwater tempwave heightnotes
2019-Dec-05 21:59 019 7.8
2019-Dec-05 21:49 019 7.8
2019-Dec-05 21:39 010 7.8
2019-Dec-05 21:28 100 1 gusting 1 7.2
2019-Dec-05 21:18 080 1 gusting 1 7.8
2019-Dec-05 21:08 063 0 gusting 0 8.3
2019-Dec-05 20:58 064 0 gusting 1 8.3
2019-Dec-05 20:48 359 8.3
2019-Dec-05 20:38 332 0 gusting 2 8.3
2019-Dec-05 20:28 331 0 gusting 2 8.3
2019-Dec-05 20:17 327 1 gusting 2 7.8
2019-Dec-05 20:07 333 1 gusting 1 8.3
2019-Dec-05 19:57 351 0 gusting 2 7.8
2019-Dec-05 19:47 324 2 gusting 2 7.8
2019-Dec-05 19:37 336 0 gusting 2 7.8
2019-Dec-05 19:27 319 1 gusting 3 7.8
2019-Dec-05 19:17 314 1 gusting 1 8.3
2019-Dec-05 19:06 016 7.8
2019-Dec-05 18:56 331 1 gusting 1 8.3
2019-Dec-05 18:46 002 8.3
2019-Dec-05 18:36 336 1 gusting 1 8.9
2019-Dec-05 18:26 338 1 gusting 2 8.9
2019-Dec-05 18:16 014 0 gusting 1 8.3
2019-Dec-05 18:06 019 0 gusting 2 8.9
2019-Dec-05 17:56 348 1 gusting 1 8.9
2019-Dec-05 17:46 349 1 gusting 2 9.4
2019-Dec-05 17:35 012 1 gusting 1 9.4
2019-Dec-05 17:25 005 0 gusting 1 9.4
2019-Dec-05 17:15 015 9.4
2019-Dec-05 17:05 345 1 gusting 2 9.4
2019-Dec-05 16:55 355 1 gusting 2 10.0
2019-Dec-05 16:45 341 2 gusting 3 10.0
2019-Dec-05 16:35 020 1 gusting 2 10.6
2019-Dec-05 16:25 018 1 gusting 1 10.6
2019-Dec-05 16:15 041 1 gusting 1 10.6
2019-Dec-05 16:05 036 0 gusting 2 10.6
2019-Dec-05 15:54 037 1 gusting 2 11.1
2019-Dec-05 15:44 041 0 gusting 1 11.7
2019-Dec-05 15:34 028 11.7
2019-Dec-05 15:24 027 1 gusting 1 11.7
2019-Dec-05 15:14 029 0 gusting 4 11.7
2019-Dec-05 15:04 005 1 gusting 2 11.7
2019-Dec-05 14:54 348 1 gusting 4 11.7
2019-Dec-05 14:44 339 2 gusting 5 11.7
2019-Dec-05 14:33 025 1 gusting 2 11.7
2019-Dec-05 14:23 022 0 gusting 5 11.7
2019-Dec-05 14:13 019 3 gusting 6 11.7
2019-Dec-05 14:03 040 1 gusting 6 11.7
2019-Dec-05 13:53 018 1 gusting 6 11.7
2019-Dec-05 13:43 026 4 gusting 7 11.7
2019-Dec-05 13:33 015 4 gusting 6 11.7
2019-Dec-05 13:22 020 3 gusting 6 11.7
2019-Dec-05 13:12 027 2 gusting 6 11.7
2019-Dec-05 13:02 007 4 gusting 7 11.7
2019-Dec-05 12:52 334 6 gusting 6 11.7
2019-Dec-05 12:42 010 2 gusting 6 11.7
2019-Dec-05 12:32 353 6 gusting 6 11.1
2019-Dec-05 12:22 023 2 gusting 6 11.1
2019-Dec-05 12:11 005 1 gusting 5 10.6
2019-Dec-05 12:01 339 1 gusting 4 10.6
2019-Dec-05 11:51 359 1 gusting 5 10.6
2019-Dec-05 11:41 003 0 gusting 5 10.6
2019-Dec-05 11:31 020 1 gusting 6 10.0
2019-Dec-05 11:21 012 4 gusting 6 10.0
2019-Dec-05 11:11 350 6 gusting 9 10.0
2019-Dec-05 11:01 019 5 gusting 9 10.0
2019-Dec-05 10:51 023 4 gusting 8 10.0
2019-Dec-05 10:41 016 6 gusting 6 9.4
2019-Dec-05 10:30 011 1 gusting 7 9.4
2019-Dec-05 10:20 010 7 gusting 9 9.4
2019-Dec-05 10:10 036 6 gusting 8 9.4
2019-Dec-05 10:00 007 3 gusting 6 9.4
2019-Dec-05 09:50 021 2 gusting 5 9.4
2019-Dec-05 09:39 333 4 gusting 8 8.9
2019-Dec-05 09:29 358 4 gusting 8 8.3
2019-Dec-05 09:19 325 2 gusting 8 8.3
2019-Dec-05 09:09 357 7 gusting 11 8.3
2019-Dec-05 08:59 333 5 gusting 8 8.3
2019-Dec-05 08:49 019 1 gusting 6 7.8
2019-Dec-05 08:39 010 5 gusting 5 7.8
2019-Dec-05 08:29 010 1 gusting 6 7.2
2019-Dec-05 08:18 012 7 gusting 7 7.2
2019-Dec-05 08:08 346 5 gusting 6 7.2
2019-Dec-05 07:58 317 5 gusting 6 6.7
2019-Dec-05 07:48 020 2 gusting 5 6.7
2019-Dec-05 07:38 026 0 gusting 4 6.1
2019-Dec-05 07:27 023 2 gusting 5 6.1
2019-Dec-05 07:17 019 2 gusting 5 6.1
2019-Dec-05 07:07 016 3 gusting 5 6.1
2019-Dec-05 06:57 037 2 gusting 4 5.6
2019-Dec-05 06:47 036 0 gusting 2 5.6
2019-Dec-05 06:37 021 1 gusting 2 5.6
2019-Dec-05 06:26 029 2 gusting 3 5.6
2019-Dec-05 06:16 028 1 gusting 5 6.1
2019-Dec-05 06:06 312 2 gusting 5 6.1
2019-Dec-05 05:56 020 2 gusting 4 6.1
2019-Dec-05 05:46 008 1 gusting 5 6.1
2019-Dec-05 05:36 356 1 gusting 3 6.1
2019-Dec-05 05:26 350 1 gusting 2 5.6
2019-Dec-05 05:16 021 0 gusting 5 5.6
2019-Dec-05 05:05 018 0 gusting 4 6.1
2019-Dec-05 04:55 357 1 gusting 6 6.1
2019-Dec-05 04:45 355 1 gusting 4 6.1
2019-Dec-05 04:35 020 0 gusting 2 6.1
2019-Dec-05 04:25 013 1 gusting 4 6.1
2019-Dec-05 04:15 341 4 gusting 4 6.1
2019-Dec-05 04:04 321 1 gusting 2 6.1
2019-Dec-05 03:54 011 0 gusting 4 6.1
2019-Dec-05 03:44 009 1 gusting 6 6.1
2019-Dec-05 03:34 357 2 gusting 6 6.1
2019-Dec-05 03:24 342 1 gusting 9 5.6
2019-Dec-05 03:14 021 6 gusting 11 5.6
2019-Dec-05 03:04 357 7 gusting 9 5.0
2019-Dec-05 02:53 334 2 gusting 4 5.0
2019-Dec-05 02:43 010 1 gusting 1 4.4
2019-Dec-05 02:33 028 1 gusting 4 5.0
2019-Dec-05 02:23 010 4 gusting 6 4.4
2019-Dec-05 02:12 028 1 gusting 6 4.4
2019-Dec-05 02:02 344 4 gusting 6 4.4
2019-Dec-05 01:52 018 3 gusting 6 4.4
2019-Dec-05 01:42 355 4 gusting 5 4.4
2019-Dec-05 01:32 012 5 gusting 6 4.4
2019-Dec-05 01:22 002 4 gusting 6 4.4
2019-Dec-05 01:11 001 3 gusting 5 4.4
2019-Dec-05 01:01 019 1 gusting 2 3.9
2019-Dec-05 00:51 023 1 gusting 1 3.9
2019-Dec-05 00:41 098 0 gusting 1 3.9
2019-Dec-05 00:30 099 1 gusting 1 3.9
2019-Dec-05 00:20 110 1 gusting 1 4.4
2019-Dec-05 00:10 105 1 gusting 1 4.4
2019-Dec-05 00:00 081 0 gusting 1 4.4
2019-Dec-04 23:50 020 5.6
2019-Dec-04 23:40 355 1 gusting 4 5.6
2019-Dec-04 23:30 240 5.6
2019-Dec-04 23:19 355 1 gusting 5 5.6
2019-Dec-04 23:09 337 1 gusting 2 5.6
2019-Dec-04 22:59 020 5.6
2019-Dec-04 22:49 063 5.6
2019-Dec-04 22:39 027 5.6
2019-Dec-04 22:29 016 5.6
2019-Dec-04 22:19 340 2 gusting 6 6.1
2019-Dec-04 22:09 346 1 gusting 2 6.1
2019-Dec-04 21:59 343 1 gusting 2 6.1
2019-Dec-04 21:49 329 1 gusting 2 6.1
2019-Dec-04 21:38 298 1 gusting 2 6.1
2019-Dec-04 21:28 020 6.1
2019-Dec-04 21:18 348 0 gusting 4 6.1
2019-Dec-04 21:08 339 1 gusting 2 6.1
2019-Dec-04 20:58 017 6.7
2019-Dec-04 20:48 318 3 gusting 6 6.7
2019-Dec-04 20:38 354 4 gusting 6 6.7
2019-Dec-04 20:28 338 2 gusting 6 6.7
2019-Dec-04 20:18 323 0 gusting 6 6.7
2019-Dec-04 20:07 330 1 gusting 8 6.7
2019-Dec-04 19:57 341 5 gusting 7 6.7
2019-Dec-04 19:47 317 4 gusting 8 6.7
2019-Dec-04 19:37 325 4 gusting 5 6.7
2019-Dec-04 19:27 012 2 gusting 7 6.7
2019-Dec-04 19:17 350 2 gusting 9 6.7
2019-Dec-04 19:07 339 4 gusting 7 6.7
2019-Dec-04 18:57 016 2 gusting 8 7.2
2019-Dec-04 18:47 012 3 gusting 7 7.2
2019-Dec-04 18:36 028 1 gusting 6 7.8
2019-Dec-04 18:26 018 3 gusting 8 7.8
2019-Dec-04 18:16 008 1 gusting 6 7.8
2019-Dec-04 18:06 7.8
2019-Dec-04 17:56 356 5 gusting 5 7.8
2019-Dec-04 17:46 343 2 gusting 11 7.8
2019-Dec-04 17:36 018 1 gusting 6 8.3
2019-Dec-04 17:26 341 4 gusting 6 8.3
2019-Dec-04 17:16 027 2 gusting 8 8.3
2019-Dec-04 17:05 307 6 gusting 11 8.3
2019-Dec-04 16:55 340 6 gusting 8 8.3
2019-Dec-04 16:45 331 5 gusting 7 8.9
2019-Dec-04 16:35 322 1 gusting 11 8.9
2019-Dec-04 16:25 308 7 gusting 11 9.4
2019-Dec-04 16:15 337 7 gusting 11 9.4
2019-Dec-04 16:04 019 5 gusting 11 9.4
2019-Dec-04 15:54 10.0
2019-Dec-04 15:44 356 5 gusting 11 10.0
2019-Dec-04 15:34 312 6 gusting 12 10.6
2019-Dec-04 15:24 359 9 gusting 11 10.6
2019-Dec-04 15:14 337 5 gusting 9 11.1
2019-Dec-04 15:03 317 6 gusting 8 11.1
2019-Dec-04 14:53 11.7
2019-Dec-04 14:43 359 8 gusting 11 11.7
2019-Dec-04 14:33 330 5 gusting 9 12.2
2019-Dec-04 14:23 328 6 gusting 9 12.8
2019-Dec-04 14:13 019 3 gusting 11 12.8
2019-Dec-04 14:03 359 6 gusting 11 12.8
2019-Dec-04 13:53 350 7 gusting 12 12.8
2019-Dec-04 13:43 354 6 gusting 14 13.3
2019-Dec-04 13:32 015 8 gusting 13 13.3
2019-Dec-04 13:22 352 6 gusting 13 13.3
2019-Dec-04 13:12 315 9 gusting 13 13.3
2019-Dec-04 13:02 003 6 gusting 13 13.3
2019-Dec-04 12:52 357 11 gusting 13 13.3
2019-Dec-04 12:42 006 6 gusting 12 12.8
2019-Dec-04 12:32 309 6 gusting 11 12.8
2019-Dec-04 12:21 346 6 gusting 13 12.8
2019-Dec-04 12:11 014 6 gusting 8 12.2
2019-Dec-04 12:01 005 7 gusting 11 12.2
2019-Dec-04 11:51 026 6 gusting 12 12.2
2019-Dec-04 11:41 001 5 gusting 12 11.7
2019-Dec-04 11:31 016 10 gusting 13 11.7
2019-Dec-04 11:21 345 5 gusting 11 11.7
2019-Dec-04 11:11 003 11 gusting 15 11.1
2019-Dec-04 11:00 014 8 gusting 13 11.1
2019-Dec-04 10:50 013 6 gusting 13 11.1
2019-Dec-04 10:40 009 7 gusting 11 10.6
2019-Dec-04 10:30 010 6 gusting 13 10.6
2019-Dec-04 10:20 004 8 gusting 11 10.0
2019-Dec-04 10:09 018 8 gusting 12 10.0
2019-Dec-04 09:59 359 7 gusting 11 9.4
2019-Dec-04 09:49 349 6 gusting 14 9.4
2019-Dec-04 09:39 004 9 gusting 11 9.4
2019-Dec-04 09:29 019 6 gusting 12 8.9
2019-Dec-04 09:18 346 6 gusting 11 8.9
2019-Dec-04 09:08 355 7 gusting 9 8.3
2019-Dec-04 08:58 356 2 gusting 11 8.3
2019-Dec-04 08:48 026 4 gusting 12 7.8
2019-Dec-04 08:38 015 8 gusting 13 7.8
2019-Dec-04 08:28 348 8 gusting 13 7.2
2019-Dec-04 08:18 6.7
2019-Dec-04 08:07 019 6 gusting 13 6.7
2019-Dec-04 07:57 013 8 gusting 11 6.7
2019-Dec-04 07:47 027 9 gusting 11 6.1
2019-Dec-04 07:37 351 6 gusting 13 6.1
2019-Dec-04 07:27 351 2 gusting 11 5.6
2019-Dec-04 07:16 018 4 gusting 11 5.6
2019-Dec-04 07:06 029 5 gusting 8 5.6
2019-Dec-04 06:56 337 4 gusting 8 5.0
2019-Dec-04 06:46 336 5 gusting 11 5.0
2019-Dec-04 06:36 003 3 gusting 8 5.0
2019-Dec-04 06:26 346 4 gusting 11 5.0
2019-Dec-04 06:15 346 5 gusting 11 5.0
2019-Dec-04 06:05 347 5 gusting 11 5.0
2019-Dec-04 05:55 316 5 gusting 8 5.0
2019-Dec-04 05:45 003 6 gusting 11 5.0
2019-Dec-04 05:35 330 5 gusting 12 5.0
2019-Dec-04 05:25 350 6 gusting 12 5.0
2019-Dec-04 05:15 321 9 gusting 13 5.0
2019-Dec-04 05:05 312 9 gusting 12 5.0
2019-Dec-04 04:54 316 10 gusting 12 5.0
2019-Dec-04 04:44 314 5 gusting 12 5.0
2019-Dec-04 04:34 356 6 gusting 11 5.0
2019-Dec-04 04:24 335 8 gusting 11 5.0
2019-Dec-04 04:13 347 6 gusting 13 5.0
2019-Dec-04 04:03 329 6 gusting 13 5.0
2019-Dec-04 03:53 002 6 gusting 14 5.0
2019-Dec-04 03:43 309 6 gusting 12 5.6
2019-Dec-04 03:33 343 7 gusting 13 5.6
2019-Dec-04 03:23 345 9 gusting 14 5.6
2019-Dec-04 03:13 355 7 gusting 17 5.6
2019-Dec-04 03:03 329 9 gusting 17 5.6
2019-Dec-04 02:53 318 9 gusting 13 5.6
2019-Dec-04 02:42 318 8 gusting 13 5.6
2019-Dec-04 02:32 352 8 gusting 12 5.6
2019-Dec-04 02:22 323 6 gusting 13 5.6
2019-Dec-04 02:12 319 6 gusting 14 5.6
2019-Dec-04 02:01 342 6 gusting 14 5.6
2019-Dec-04 01:51 308 7 gusting 13 5.6
2019-Dec-04 01:41 328 9 gusting 13 5.6
2019-Dec-04 01:31 329 6 gusting 16 5.6
2019-Dec-04 01:21 337 8 gusting 12 6.1
2019-Dec-04 01:11 331 6 gusting 13 6.1
2019-Dec-04 01:01 336 10 gusting 14 6.1
2019-Dec-04 00:51 346 6 gusting 13 6.1
2019-Dec-04 00:41 310 9 gusting 11 6.1
2019-Dec-04 00:31 316 9 gusting 12 6.1
2019-Dec-04 00:20 312 3 gusting 12 6.7
2019-Dec-04 00:10 339 7 gusting 11 6.7
2019-Dec-04 00:00 307 6 gusting 11 6.7
2019-Dec-03 23:50 356 5 gusting 17 6.7
2019-Dec-03 23:40 346 5 gusting 13 7.2
2019-Dec-03 23:30 012 8 gusting 13 7.2
2019-Dec-03 23:20 317 8 gusting 12 7.2
2019-Dec-03 23:10 354 5 gusting 14 7.2
2019-Dec-03 22:59 342 12 gusting 15 7.2
2019-Dec-03 22:49 323 9 gusting 12 7.2
2019-Dec-03 22:39 332 6 gusting 13 7.2
2019-Dec-03 22:29 7.2
2019-Dec-03 22:19 328 8 gusting 12 7.2
2019-Dec-03 22:09 359 4 gusting 13 7.2